Pompano Beach, FL

3:23 AM EDT on June 23, 2017 (GMT -0400)
Pompano Beach

Weather History for KPMP - February, 2014

Change the Weather History Date:

Monday, February 10, 2014

  Actual Average Record
Temperature  
Mean Temperature 72 °F -  
Max Temperature 81 °F 75 °F 89 °F (1982)
Min Temperature 64 °F 54 °F 38 °F (1971)
Cooling Degree Days 8    
Growing Degree Days 22 (Base 50)    
Moisture  
Dew Point 64 °F    
Average Humidity 74    
Maximum Humidity 90    
Minimum Humidity 58    
Precipitation  
Precipitation 0.00 in - - ()
Sea Level Pressure  
Sea Level Pressure 30.05 in    
Wind  
Wind Speed 7 mph (NE)    
Max Wind Speed 10 mph    
Max Gust Speed 16 mph    
Visibility 10 miles    
Events      
Averages and records for this station are not official NWS values.
T = Trace of Precipitation, MM = Missing Value Source: NWS Daily Summary

Daily Weather History Graph

Daily Weather History Graph

Search for Another Location

Airport or City:

Trip Planner

Search our weather history database for the weather conditions in past years. The results will help you decide how hot, cold, wet, or windy it might be!

Date:

Astronomy

Feb. 10, 2014 Rise Set
Actual Time 6:59 AM EST 6:10 PM EST
Civil Twilight 6:35 AM EST 6:33 PM EST
Nautical Twilight 6:08 AM EST 7:01 PM EST
Astronomical Twilight 5:41 AM EST 7:28 PM EST
Moon 2:46 PM EST (2/10) 3:42 AM EST (2/10)
Length of Visible Light 11h 57m
Length of Day
11h 10m
Waxing Gibbous, 84% of the Moon is Illuminated
Feb 10
Waxing Gibbous
Feb 14
Full
Feb 22
Last Quarter
Mar 1
New
Mar 8
First Quarter

Hourly Weather History & Observations

Time (EST) Temp. Heat Index Dew Point Humidity Pressure Visibility Wind Dir Wind Speed Gust Speed Precip Events Conditions
12:53 AM 64.9 °F - 61.0 °F 87% 30.05 in 10.0 mi NNW 6.9 mph - N/A   Clear
1:53 AM 66.0 °F - 62.1 °F 87% 30.04 in 10.0 mi NNW 4.6 mph - N/A   Overcast
2:53 AM 66.0 °F - 61.0 °F 84% 30.03 in 10.0 mi NNW 4.6 mph - N/A   Mostly Cloudy
3:53 AM 64.9 °F - 62.1 °F 90% 30.02 in 10.0 mi NW 3.5 mph - N/A   Mostly Cloudy
4:53 AM 64.9 °F - 62.1 °F 90% 30.02 in 10.0 mi NW 4.6 mph - N/A   Mostly Cloudy
5:53 AM 64.9 °F - 62.1 °F 90% 30.04 in 10.0 mi NNW 3.5 mph - N/A   Mostly Cloudy
6:53 AM 64.9 °F - 61.0 °F 87% 30.06 in 10.0 mi NNW 3.5 mph - N/A   Scattered Clouds
7:53 AM 66.9 °F - 62.1 °F 84% 30.08 in 10.0 mi NNW 6.9 mph - N/A   Partly Cloudy
8:53 AM 72.0 °F - 63.0 °F 73% 30.09 in 10.0 mi NNW 5.8 mph - N/A   Partly Cloudy
9:53 AM 78.1 °F - 64.9 °F 64% 30.10 in 10.0 mi North 6.9 mph - N/A   Partly Cloudy
10:53 AM 78.1 °F - 66.0 °F 66% 30.09 in 10.0 mi ENE 10.4 mph - N/A   Clear
11:53 AM 79.0 °F - 64.9 °F 62% 30.06 in 10.0 mi East 10.4 mph 16.1 mph N/A   Clear
12:53 PM 79.0 °F - 64.9 °F 62% 30.04 in 10.0 mi ENE 9.2 mph - N/A   Partly Cloudy
1:53 PM 81.0 °F 82.7 °F 64.9 °F 58% 30.03 in 10.0 mi East 9.2 mph - N/A   Mostly Cloudy
2:53 PM 79.0 °F - 64.9 °F 62% 30.01 in 10.0 mi ESE 10.4 mph - N/A   Scattered Clouds
3:53 PM 79.0 °F - 64.9 °F 62% 30.01 in 10.0 mi East 10.4 mph - N/A   Mostly Cloudy
4:53 PM 75.9 °F - 64.9 °F 69% 30.02 in 10.0 mi ENE 10.4 mph - N/A   Partly Cloudy
5:53 PM 75.9 °F - 64.9 °F 69% 30.03 in 10.0 mi ENE 8.1 mph - N/A   Partly Cloudy
6:53 PM 75.0 °F - 64.9 °F 71% 30.04 in 10.0 mi ENE 6.9 mph - N/A   Scattered Clouds
7:53 PM 75.0 °F - 64.9 °F 71% 30.05 in 10.0 mi ENE 6.9 mph - N/A   Mostly Cloudy
8:53 PM 73.9 °F - 64.9 °F 73% 30.06 in 10.0 mi NE 3.5 mph - N/A   Scattered Clouds
9:32 PM 73.4 °F - 64.4 °F 73% 30.06 in 10.0 mi ENE 8.1 mph - N/A   Overcast
9:40 PM 73.4 °F - 64.4 °F 73% 30.06 in 10.0 mi NE 8.1 mph - N/A   Mostly Cloudy
9:53 PM 73.9 °F - 64.9 °F 73% 30.07 in 10.0 mi NE 6.9 mph - N/A   Mostly Cloudy
10:20 PM 73.4 °F - 64.4 °F 73% 30.06 in 10.0 mi ENE 8.1 mph - N/A   Mostly Cloudy
10:32 PM 73.4 °F - 64.4 °F 73% 30.06 in 10.0 mi ENE 9.2 mph - N/A   Mostly Cloudy
10:53 PM 73.9 °F - 64.0 °F 71% 30.06 in 10.0 mi ENE 9.2 mph - N/A   Partly Cloudy
11:53 PM 73.9 °F - 64.0 °F 71% 30.05 in 10.0 mi East 5.8 mph - N/A   Partly Cloudy